This demonstration page uses our WeatherBlox Daily Observations layout. Learn more.

41.55636, -103.73856

Hourly Observations for May 30, 2018

Temp ( °F °C ) Dew Point ( °F °C ) Humidity (%) Winds ( mph kmh ) Pressure ( in mb ) Visibility ( mi km ) Precip ( " mm )
12:58 am 00:58 Clear 53 11.9 47 8.2 78 78 NW 15 24 29.82 1010 10 16.0934 N/A
1:58 am 01:58 Clear 51 10.3 46 7.9 85 85 WNW 12 19 29.85 1011 10 16.0934 N/A
2:58 am 02:58 Mostly Clear 50 10.1 46 8 87 87 WNW 10 17 29.84 1010 10 16.0934 N/A
3:58 am 03:58 Clear 49 9.3 45 7.4 88 88 W 9 15 29.85 1011 10 16.0934 N/A
4:58 am 04:58 Clear 48 8.8 44 6.9 88 88 W 10 17 29.85 1011 10 16.0934 N/A
5:58 am 05:58 Sunny 48 9.1 45 7 87 87 W 12 19 29.86 1011 10 16.0934 N/A
6:58 am 06:58 Sunny 55 13 46 8 72 72 WNW 12 19 29.85 1011 10 16.0934 N/A
7:58 am 07:58 Sunny 61 16.1 50 10.1 68 68 W 8 13 29.85 1011 10 16.0934 N/A
8:58 am 08:58 Sunny 67 19.4 50 9.8 54 54 NNW 7 11 29.84 1011 10 16.0934 N/A
9:58 am 09:58 Sunny 68 19.9 48 9 50 50 W 6 9 29.85 1011 10 16.0934 N/A
10:58 am 10:58 Mostly Sunny 69 20.8 49 9.5 49 49 WSW 7 11 29.82 1010 10 16.0934 N/A
11:58 am 11:58 Sunny 71 21.9 50 10 47 47 W 9 15 29.81 1009 10 16.0934 N/A
12:58 pm 12:58 Partly Cloudy 73 22.8 49 9.2 42 42 SW 8 13 29.8 1009 10 16.0934 N/A
1:58 pm 13:58 Mostly Sunny 74 23.2 44 6.9 35 35 Calm 29.78 1008 10 16.0934 N/A
2:58 pm 14:58 Sunny 75 23.8 47 8.3 37 37 Calm 29.76 1008 10 16.0934 N/A
3:58 pm 15:58 Mostly Sunny 76 24.4 46 7.8 35 35 NW 5 7 29.74 1007 10 16.0934 N/A
4:58 pm 16:58 Sunny 75 24 50 10 41 41 N 8 13 29.75 1007 10 16.0934 N/A
5:58 pm 17:58 Sunny 73 23 52 11 47 47 Calm 29.75 1007 10 16.0934 N/A
6:58 pm 18:58 Mostly Sunny 72 22 51 10.3 48 48 Calm 29.75 1007 10 16.0934 N/A
7:58 pm 19:58 Sunny 70 21 48 9 46 46 ESE 3 6 29.72 1006 10 16.0934 N/A
8:58 pm 20:58 Clear 64 17.8 53 11.8 68 68 SSE 7 11 29.74 1007 10 16.0934 N/A
9:58 pm 21:58 Mostly Clear 61 16.3 53 11.6 74 74 SSW 13 20 29.77 1008 10 16.0934 N/A
10:58 pm 22:58 Mostly Clear 59 15 50 10 72 72 WSW 8 13 29.76 1008 10 16.0934 N/A
11:58 pm 23:58 Mostly Clear 57 14 50 10.1 78 78 WSW 10 17 29.76 1008 10 16.0934 N/A

Powered by AerisWeather